Flight Track Log - Related Links

Times and Time Zones

All times are in EDT time to prevent confusion due to time zone crossing. See the ACA446 flight status page for this flight to view local times or setup timezone preferences in your user account.

Time Position Orientation Groundspeed Altitude Reporting Facility
EDT Latitude Longitude Course Direction KTS MPH feet Rate Location/Type
10:21AM 43.6833 -79.6333 79° East 160 184 1,400  Level Toronto Center
10:22AM 43.7167 -79.6833 313° West 190 219 3,700 1,900 Climbing Toronto Center
10:23AM 43.7667 -79.6833 360° North 210 242 5,200 1,350 Climbing Toronto Center
10:24AM 43.8998 -79.1259 58° Northeast  Level Estimated
10:24AM 43.7833 -79.5833 77° East 260 299 6,400  Level Toronto Center
10:25AM 43.9550 -78.9991 59° Northeast  Level Estimated
10:25AM 43.7833 -79.4667 90° East 270 311 8,400  Level Toronto Center
10:26AM 43.9757 -78.8536 79° East  Level FlightAware Approximate
10:26AM 43.7833 -79.3833 90° East 310 357 10,900  Level Toronto Center
10:27AM 43.7833 -79.2167 90° East 350 403 13,200 2,700 Climbing Toronto Center
10:28AM 43.7833 -79.0833 90° East 370 426 16,300 2,800 Climbing Toronto Center
10:29AM 43.7667 -78.9167 98° East 390 449 18,800 2,450 Climbing Toronto Center
10:30AM 43.7667 -78.7833 90° East 400 460 21,200 2,250 Climbing Toronto Center
10:31AM 43.8000 -78.6333 73° East 390 449 23,300 2,650 Climbing Toronto Center
10:32AM 43.8500 -78.5000 62° Northeast 370 426 26,500 1,850 Climbing Toronto Center
10:33AM 43.8833 -78.4000 65° Northeast 360 414 27,000 250 Climbing Toronto Center
10:34AM 43.9333 -78.2833 59° Northeast 340 391 27,000  Level Toronto Center
10:35AM 44.0000 -78.1667 52° Northeast 340 391 27,000  Level Toronto Center
10:36AM 44.0500 -78.0833 50° Northeast 340 391 27,000  Level Toronto Center
10:37AM 44.1167 -77.9667 51° Northeast 340 391 27,000  Level Toronto Center
10:38AM 44.1667 -77.8667 55° Northeast 340 391 27,000  Level Toronto Center
10:39AM 44.2167 -77.7500 59° Northeast 340 391 27,000  Level Toronto Center
10:40AM 44.2833 -77.6500 47° Northeast 340 391 27,000  Level Toronto Center
10:41AM 44.3333 -77.5333 59° Northeast 340 391 27,000  Level Toronto Center
10:42AM 44.3833 -77.4333 55° Northeast 340 391 27,000 -500 Level Toronto Center
10:43AM 44.4333 -77.3500 50° Northeast 340 391 26,000 -1,350 Descending Toronto Center
10:44AM 44.4833 -77.2167 62° Northeast 340 391 24,300 -1,700 Descending Toronto Center
10:45AM 44.5500 -77.1000 51° Northeast 340 391 22,600 -1,774 Descending Toronto Center
10:46AM 44.6000 -77.0500 35° Northeast 330 380 20,900 -1,774 Descending Montreal Center
10:47AM 44.6500 -76.9333 59° Northeast 320 368 19,200 -1,550 Descending Montreal Center
10:48AM 44.7000 -76.8333 55° Northeast 320 368 17,800 -1,650 Descending Montreal Center
10:49AM 44.7500 -76.7500 50° Northeast 310 357 15,900 -1,700 Descending Montreal Center
10:50AM 44.8000 -76.6500 55° Northeast 300 345 14,400 -1,584 Descending Montreal Center
10:51AM 44.8500 -76.5000 65° Northeast 300 345 12,600 -1,680 Descending Toronto Center
10:52AM 44.9000 -76.4333 43° Northeast 290 334 10,900 -1,600 Descending Toronto Center
10:53AM 44.9500 -76.3333 55° Northeast 280 322 9,400 -1,500 Descending Toronto Center
10:54AM 45.0000 -76.2667 43° Northeast 270 311 7,900 -1,600 Descending Toronto Center
10:55AM 45.0333 -76.1667 65° Northeast 260 299 6,200 -1,357 Descending Toronto Center
10:56AM 45.0667 -76.1333 35° Northeast 250 288 5,300 -730 Descending Montreal Center
10:57AM 45.1000 -76.0667 55° Northeast 240 276 4,800 -500 Descending Montreal Center
10:58AM 45.1500 -75.9667 55° Northeast 240 276 4,300 -700 Descending Montreal Center
10:59AM 45.1833 -75.9000 55° Northeast 240 276 3,400 -650 Descending Montreal Center
11:00AM 45.2167 -75.8333 55° Northeast 200 230 3,000 -600 Descending Montreal Center
11:01AM 45.2500 -75.7833 47° Northeast 180 207 2,200 -850 Descending Montreal Center
11:02AM 45.2667 -75.7333 65° Northeast 160 184 1,300 -850 Descending Montreal Center
11:03AM 45.3000 -75.6833 47° Northeast 130 150 500 -450 Descending Montreal Center
11:04AM 45.3000 -75.6667 90° East 120 138 400 -100 Descending Montreal Center

Login

Don't have an account? Register now (free) for customized features, flight alerts, and more!